sat.trackr.live / text

‹ back to catalog

STARLINK-31674

NORAD 59517 · 2024-073G

PAYLOAD ACTIVE UNKNOWN

§ Identity

Operator
Country
US
Launch date
2024-04-17
Launch site
AFETR
Launch vehicle
Mass (kg)
RCS (m²)

Purposes: comms

External: N2YO · Heavens-Above · Gunter

§ Orbital elements

Epoch: 2026-05-24T15:34:33.290688Z

Period
94.27 min
Inclination
43.0029°
Eccentricity
0.0001020
Mean motion
15.27572025 rev/d
Perigee alt
482.4 km
Apogee alt
483.8 km
Semi-major
6,861.2 km
B*
-1.2981e-5
RAAN
248.9568°
Arg perigee
268.5382°
Mean anomaly
91.5353°
Rev number
11,779

§ Raw data

STARLINK-316741 59517U 24073G   26144.64899642 -.00000619  00000+0 -12981-4 0  99902 59517  43.0029 248.9568 0001020 268.5382  91.5353 15.27572025117793

JSON: /api/v1/satellites/59517 · /tle

For live sub-satellite position, see the globe view (requires WebGL).

§ Visibility from observer

Set your observer location to see the next 7 days of passes ≥ 10°. The values pass through the URL so the page stays shareable.

No JS? Fill the form by hand. The geolocation button needs JavaScript.